Regional Weather Roundup
Issued by NWS Little Rock, AR

Home | Current Version | Previous Version | Graphics & Text | Print | Product List | Glossary On
Versions: 1 2 3 4 5 6 7 8 9 10 11 12 13 14 15 16 17 18 19 20 21 22 23 24 25 26 27 28 29 30 31 32 33 34 35 36 37 38 39 40 41 42 43 44 45 46 47 48 49
000
ASUS44 KLZK 290305
RWRLZK

WEATHER ROUNDUP FOR ARKANSAS
NATIONAL WEATHER SERVICE LITTLE ROCK AR
900 PM CST WED JAN 28 2015

NOTE: "FAIR" INDICATES FEW OR NO CLOUDS BELOW 12,000 FEET WITH NO
SIGNIFICANT WEATHER AND/OR OBSTRUCTIONS TO VISIBILITY.

ARZ001-003-010-029-290400-
NORTHWEST ARKANSAS

CITY           SKY/WX    TMP DP  RH WIND       PRES   REMARKS
FAYETTEVILLE   CLEAR     60  43  53 S15       29.94R
FORT SMITH     PTCLDY    55  43  63 NE5       29.95R
HARRISON       MOCLDY    60  43  53 S15G25    29.92F
BENTONVILLE    CLEAR     61  41  48 S12G17    29.93R
ROGERS         CLEAR     60  43  53 S12       29.93R
SILOAM SPGS    CLEAR     59  39  47 S12       29.94R
HIGHFILL       CLEAR     59  42  53 S8        29.92R
SPRINGDALE     CLEAR     61  43  51 S17       29.95R
$$

ARZ004-005-016-290400-
NORTH CENTRAL ARKANSAS

CITY           SKY/WX    TMP DP  RH WIND       PRES   REMARKS
BATESVILLE     PTCLDY    52  37  58 SE10G16   30.03F
FLIPPIN        CLOUDY    55  37  50 S9        29.94F
MTN HOME       CLOUDY    51  37  58 S7        29.94F
$$

ARZ040-041-290400-
WEST CENTRAL ARKANSAS

CITY           SKY/WX    TMP DP  RH WIND       PRES   REMARKS
MENA           PTCLDY    68  45  42 S10G24    30.01R
MOUNT IDA      MOCLDY    67  43  41 VRB7      29.98F
$$

ARZ009-017-025-026-028-290400-
NORTHEAST ARKANSAS

CITY           SKY/WX    TMP DP  RH WIND       PRES   REMARKS
CORNING        FAIR      48  37  66 S13       30.03F
JONESBORO      PTCLDY    48  38  68 S10       30.04F
NEWPORT        PTCLDY    49  42  76 S15       30.05F
WALNUT RIDGE   MOCLDY    46  36  66 S9        30.03S
BLYTHEVILLE    PTCLDY    48  33  56 S10       30.07F
$$

ARZ022-023-033-042-044-290400-
CENTRAL ARKANSAS

CITY           SKY/WX    TMP DP  RH WIND       PRES   REMARKS
LITTLE ROCK    MOCLDY    54  41  61 S9        30.04F
N LITTLE ROCK  MOCLDY    55  44  68 S9G16     30.04F
JACKSONVILLE   MOCLDY    55  42  61 S6        30.03F
SEARCY         MOCLDY    51  40  65 CALM      30.05F
HOT SPRINGS    MOCLDY    63  43  48 SE6       30.04R
RUSSELLVILLE   CLOUDY    57  41  55 E6        29.98F
CLINTON        FAIR      41  37  87 CALM      30.04F
$$

ARZ036-290400-
EAST ARKANSAS

CITY           SKY/WX    TMP DP  RH WIND       PRES   REMARKS
WEST MEMPHIS   PTCLDY    45  36  70 S9        30.08F
$$

ARZ050-053-066-070-073-290400-
SOUTHWEST ARKANSAS

CITY           SKY/WX    TMP DP  RH WIND       PRES   REMARKS
ARKADELPHIA    FAIR      51  47  86 CALM      30.05S
CAMDEN         PTCLDY    59  39  47 MISG      30.06S
TEXARKANA      PTCLDY    64  43  46 S13       30.04S
EL DORADO      MOCLDY    59  41  51 S7        30.08S
DE QUEEN       CLEAR     65  45  48 S3        29.99F
$$

ARZ056-057-069-290400-
SOUTHEAST ARKANSAS

CITY           SKY/WX    TMP DP  RH WIND       PRES   REMARKS
PINE BLUFF     CLOUDY    53  41  63 S9        30.07S
STUTTGART      MOCLDY    52  41  66 SE12      30.07F
MONTICELLO     MOCLDY    59  41  51 S8        30.09F

$$





USA.gov is the U.S. government's official web portal to all federal, state and local government web resources and services.